Change the Weather History Date:

Wednesday, October 8, 2014

  Actual Average (KPAH) Record (KPAH)
Temperature  
Mean Temperature 64 °F 61 °F  
Max Temperature 81 °F 74 °F 92 °F (1939)
Min Temperature 49 °F 49 °F 28 °F (1987)
Degree Days  
Heating Degree Days 0 6  
Month to date heating degree days 38  
Since 1 July heating degree days 77  
Cooling Degree Days 0 2  
Month to date cooling degree days 17  
Year to date cooling degree days 1517  
Growing Degree Days 14 (Base 50)    
Moisture  
Dew Point 51 °F    
Average Humidity 72    
Maximum Humidity 100    
Minimum Humidity 28    
Precipitation  
Precipitation 0.00 in 0.12 in 2.11 in (1999)
Month to date precipitation 1.08  
Year to date precipitation 37.31  
Snow  
Snow 0.00 in 0.00 in 0.00 in (2002)
Month to date snowfall 0.0  
Since 1 July snowfall 0.0  
Since 1 September snowfall 0.0  
Snow Depth -    
Sea Level Pressure  
Sea Level Pressure 30.06 in    
Wind  
Wind Speed 1 mph (WSW)    
Max Wind Speed 6 mph    
Max Gust Speed -    
Visibility 10 miles    
Events Fog    
T = Trace of Precipitation, MM = Missing Value Source: NWS Daily Summary

Daily Weather History Graph

Daily Weather History Graph

Search for Another Location

Airport or City:

Trip Planner

Search our weather history database for the weather conditions in past years. The results will help you decide how hot, cold, wet, or windy it might be!

Date:

Astronomy

Oct. 08, 2014 Rise Set
Actual Time 6:56 AM CDT 6:27 PM CDT
Civil Twilight 6:30 AM CDT 6:53 PM CDT
Nautical Twilight 6:00 AM CDT 7:24 PM CDT
Astronomical Twilight 5:30 AM CDT 7:54 PM CDT
Moon 6:43 PM CDT (10/8) 7:02 AM CDT (10/8)
Length of Visible Light 12h 23m
Length of Day
11h 31m
Full, 100% of the Moon is Illuminated
Oct 8
Full
Oct 15
Last Quarter
Oct 23
New
Oct 30
First Quarter
Nov 6
Full

Hourly Weather History & Observations

Time (CDT) Temp. Dew Point Humidity Pressure Visibility Wind Dir Wind Speed Gust Speed Precip Events Conditions
12:15 AM 58.1 °F 58.1 °F 100% 29.97 in 0.2 mi Calm Calm - N/A Fog Fog
12:35 AM 57.7 °F 57.7 °F 100% 29.97 in 10.0 mi Calm Calm - N/A   Clear
12:55 AM 57.0 °F 56.7 °F 99% 29.97 in 10.0 mi Calm Calm - N/A   Clear
1:15 AM 57.4 °F 55.0 °F 92% 29.98 in 10.0 mi Calm Calm - N/A   Clear
1:35 AM 55.2 °F 54.9 °F 99% 29.99 in 10.0 mi Calm Calm - N/A   Clear
1:55 AM 55.0 °F 55.0 °F 100% 29.99 in 10.0 mi Calm Calm - N/A   Clear
2:15 AM 54.7 °F 54.5 °F 99% 29.99 in 10.0 mi Calm Calm - N/A   Clear
2:35 AM 52.9 °F 52.9 °F 100% 29.99 in 7.0 mi Calm Calm - N/A   Clear
2:55 AM 52.0 °F 52.0 °F 100% 29.99 in 10.0 mi Calm Calm - N/A   Clear
3:15 AM 52.9 °F 52.9 °F 100% 29.99 in 10.0 mi Calm Calm - N/A   Clear
3:35 AM 51.1 °F 50.2 °F 97% 30.00 in 10.0 mi Calm Calm - N/A   Clear
3:55 AM 51.3 °F 51.3 °F 100% 30.01 in 10.0 mi Calm Calm - N/A   Clear
4:15 AM 50.5 °F 50.5 °F 100% 30.01 in 10.0 mi Calm Calm - N/A   Clear
4:35 AM 49.8 °F 49.8 °F 100% 30.02 in 10.0 mi Calm Calm - N/A   Clear
4:55 AM 49.3 °F 49.3 °F 100% 30.03 in 10.0 mi Calm Calm - N/A   Clear
5:15 AM 49.1 °F 49.1 °F 100% 30.04 in 10.0 mi Calm Calm - N/A   Clear
5:35 AM 49.1 °F 49.1 °F 100% 30.05 in 10.0 mi Calm Calm - N/A   Clear
5:55 AM 50.0 °F 50.0 °F 100% 30.06 in 10.0 mi Calm Calm - N/A   Clear
6:15 AM 51.6 °F 51.6 °F 100% 30.07 in 10.0 mi Calm Calm - N/A   Clear
6:35 AM 52.2 °F 52.2 °F 100% 30.08 in 10.0 mi Calm Calm - N/A   Clear
6:55 AM 52.0 °F 52.0 °F 100% 30.08 in 10.0 mi Calm Calm - N/A   Clear
7:15 AM 51.6 °F 51.6 °F 100% 30.09 in 10.0 mi Calm Calm - N/A   Clear
7:35 AM 52.3 °F 52.3 °F 100% 30.10 in 7.0 mi Calm Calm - N/A   Clear
7:55 AM 54.3 °F 54.3 °F 100% 30.11 in 7.0 mi Calm Calm - N/A   Clear
8:15 AM 56.8 °F 54.7 °F 92% 30.11 in 10.0 mi Calm Calm - N/A   Clear
8:35 AM 60.4 °F 56.7 °F 87% 30.12 in 10.0 mi Calm Calm - N/A   Clear
8:55 AM 63.7 °F 55.0 °F 73% 30.12 in 10.0 mi Calm Calm - N/A   Clear
9:15 AM 66.2 °F 54.5 °F 66% 30.12 in 10.0 mi Calm Calm - N/A   Clear
9:35 AM 67.8 °F 50.2 °F 53% 30.12 in 10.0 mi Calm Calm - N/A   Clear
9:55 AM 69.3 °F 49.3 °F 49% 30.12 in 10.0 mi South 3.5 mph - N/A   Clear
10:15 AM 71.2 °F 47.5 °F 43% 30.12 in 10.0 mi SSW 3.5 mph - N/A   Clear
10:35 AM 72.7 °F 49.1 °F 43% 30.12 in 10.0 mi South 5.8 mph - N/A   Clear
10:55 AM 73.9 °F 45.9 °F 37% 30.12 in 10.0 mi South 5.8 mph - N/A   Clear
11:15 AM 73.9 °F 45.7 °F 36% 30.12 in 10.0 mi SSE 3.5 mph - N/A   Clear
11:35 AM 75.0 °F 43.9 °F 33% 30.12 in 10.0 mi Calm Calm - N/A   Clear
11:55 AM 75.4 °F 44.1 °F 33% 30.12 in 10.0 mi Calm Calm - N/A   Clear
12:15 PM 77.2 °F 44.4 °F 31% 30.12 in 7.0 mi WSW 3.5 mph - N/A   Clear
12:35 PM 77.7 °F 44.8 °F 31% 30.11 in 10.0 mi Calm Calm - N/A   Clear
12:55 PM 77.9 °F 44.1 °F 30% 30.11 in 10.0 mi Calm Calm - N/A   Clear
1:15 PM 78.8 °F 45.9 °F 31% 30.10 in 10.0 mi SW 4.6 mph - N/A   Clear
1:55 PM 79.5 °F 45.5 °F 30% 30.09 in 10.0 mi SSW 4.6 mph - N/A   Clear
2:15 PM 79.7 °F 43.9 °F 28% 30.08 in 10.0 mi SW 3.5 mph - N/A   Clear
2:35 PM 80.6 °F 44.8 °F 28% 30.07 in 10.0 mi SW 4.6 mph - N/A   Clear
2:55 PM 80.4 °F 46.2 °F 30% 30.07 in 10.0 mi SW 5.8 mph - N/A   Clear
3:15 PM 80.4 °F 47.1 °F 31% 30.07 in 10.0 mi NW 4.6 mph - N/A   Clear
3:35 PM 80.8 °F 46.8 °F 30% 30.06 in 10.0 mi West 5.8 mph - N/A   Clear
3:55 PM 79.7 °F 45.5 °F 30% 30.07 in 10.0 mi West 3.5 mph - N/A   Clear
4:15 PM 79.5 °F 46.2 °F 31% 30.06 in 10.0 mi WNW 4.6 mph - N/A   Clear
4:35 PM 78.6 °F 47.5 °F 33% 30.06 in 10.0 mi WNW 5.8 mph - N/A   Clear
4:55 PM 78.6 °F 48.4 °F 34% 30.05 in 10.0 mi NW 3.5 mph - N/A   Clear
5:15 PM 78.3 °F 48.2 °F 35% 30.05 in 10.0 mi NW 3.5 mph - N/A   Clear
5:35 PM 77.9 °F 49.5 °F 37% 30.05 in 10.0 mi Calm Calm - N/A   Clear
5:55 PM 74.3 °F 54.7 °F 50% 30.05 in 10.0 mi WNW 3.5 mph - N/A   Clear
6:15 PM 70.9 °F 55.6 °F 58% 30.05 in 10.0 mi Calm Calm - N/A   Clear
6:35 PM 68.5 °F 56.7 °F 66% 30.05 in 10.0 mi Calm Calm - N/A   Clear
6:55 PM 66.4 °F 57.6 °F 73% 30.05 in 10.0 mi Calm Calm - N/A   Clear
7:15 PM 65.1 °F 56.8 °F 75% 30.06 in 10.0 mi Calm Calm - N/A   Clear
7:35 PM 63.3 °F 55.6 °F 76% 30.06 in 10.0 mi Calm Calm - N/A   Clear
7:55 PM 62.6 °F 57.0 °F 82% 30.06 in 10.0 mi Calm Calm - N/A   Clear
8:15 PM 61.7 °F 55.6 °F 80% 30.07 in 10.0 mi Calm Calm - N/A   Clear
8:35 PM 59.9 °F 55.4 °F 85% 30.07 in 10.0 mi Calm Calm - N/A   Clear
8:55 PM 59.9 °F 55.4 °F 85% 30.07 in 10.0 mi Calm Calm - N/A   Clear
9:15 PM 58.8 °F 54.7 °F 86% 30.08 in 10.0 mi Calm Calm - N/A   Clear
9:35 PM 58.1 °F 54.7 °F 88% 30.08 in 10.0 mi Calm Calm - N/A   Clear
9:55 PM 57.6 °F 54.7 °F 90% 30.08 in 10.0 mi Calm Calm - N/A   Clear
10:15 PM 56.3 °F 54.7 °F 94% 30.08 in 10.0 mi Calm Calm - N/A   Clear
10:35 PM 56.3 °F 54.5 °F 94% 30.08 in 10.0 mi Calm Calm - N/A   Clear
10:55 PM 56.3 °F 55.0 °F 96% 30.08 in 10.0 mi Calm Calm - N/A   Clear
11:15 PM 56.3 °F 55.2 °F 96% 30.08 in 10.0 mi Calm Calm - N/A   Clear
11:35 PM 56.8 °F 55.4 °F 95% 30.07 in 10.0 mi Calm Calm - N/A   Clear
11:55 PM 56.5 °F 55.0 °F 95% 30.07 in 10.0 mi Calm Calm - N/A   Clear